Location: *
(43.5667°S, 166.6333°W)
Time: 18:04:45
(UTC+00:00)

Daily predictions for brighter satellites

Satellite Brightness Start Highest point End
(mag) Time Altitude Azimuth Time Altitude Azimuth Time Altitude Azimuth
SL-16 R/B 3.5 14:55:49 37° E 14:55:49 37° E 14:59:46 10° NE
NOSS 3-1 (A) 4.5 15:03:08 37° SSE 15:03:32 37° SE 15:08:44 10° ENE
Cosmos 2034 Rocket 4.2 15:11:52 66° E 15:11:52 66° E 15:17:52 10° SSE
COSMOS 2455 3.8 15:15:41 38° SSE 15:15:41 38° SSE 15:19:21 10° SSE
NOSS 3-1 (C) 3.7 15:14:12 58° E 15:14:12 58° E 15:18:50 10° NE
USA 281 4.1 15:17:27 10° SSE 15:21:30 37° S 15:21:30 37° S
ASTEX 1 4.2 15:22:56 10° SSE 15:27:48 49° E 15:32:36 10° NNE
Timation 2 Rocket 4.4 15:32:37 52° SSW 15:32:37 52° SSW 15:38:07 10° SSE
Cosmos 2227 Rocket 3.5 15:37:20 28° S 15:37:20 28° S 15:40:12 10° SSE
Cosmos 2297 Rocket 3.8 15:40:06 22° S 15:40:06 22° S 15:42:18 10° S
Gbstr 26 Del rocket 4.4 15:40:36 30° ESE 15:40:36 30° ESE 15:42:42 10° ESE
DELTA 2 R/B (1) 3.8 15:40:57 58° N 15:40:57 58° N 15:46:18 10° ENE
NOSS 2-3 (D) 4.3 15:48:07 49° SW 15:50:03 88° SE 15:55:29 10° NE
Nadezhda 4 Rocket 3.9 15:51:04 57° SW 15:51:56 63° W 15:58:12 10° N
Cosmos 2082 3.6 15:52:14 66° SW 15:52:14 66° SW 15:57:47 10° SSE
Cosmos 1763 Rocket 4.2 15:49:24 21° S 15:52:49 52° ESE 15:57:57 10° NE
Cosmos 1092 Rocket 4.0 15:49:04 10° S 15:55:32 85° E 16:01:55 10° N
X-37B 2.3 16:01:41 34° ESE 16:01:41 34° ESE 16:03:41 10° E
Cosmos 2026 Rocket 4.1 15:55:51 10° S 16:02:09 76° E 16:08:17 10° NNE
Cosmos 676 Rocket 3.9 16:01:55 64° W 16:02:18 66° WSW 16:07:42 10° SSE
USA 267 4.5 15:57:12 10° ESE 16:02:51 32° SSE 16:06:01 21° SSW
Cosmos 1633 4.0 16:00:56 17° SSE 16:03:22 37° ESE 16:06:48 10° NNE
NOSS 2-3 (C) 4.3 16:06:03 42° SW 16:08:11 68° WNW 16:13:27 10° NNE
Aureole 3 4.2 16:06:47 10° NNE 16:10:12 49° E 16:14:27 10° SSE
CZ-4B R/B 4.2 16:08:16 10° N 16:10:44 31° NNW 16:10:44 31° NNW
Cosmos 2098 Rocket 3.9 16:16:29 37° NW 16:16:29 37° NW 16:20:09 10° NNW
SL-4 R/B 1.8 16:18:33 69° WSW 16:19:01 86° NW 16:22:55 10° NE
Envisat 3.2 16:14:49 10° N 16:19:42 45° W 16:20:05 44° W
Cosmos 468 Rocket 3.9 16:17:09 20° SSW 16:20:53 88° WNW 16:26:06 10° NNE
Cosmos 2263 Rocket 2.3 16:19:50 10° NNW 16:25:32 81° ENE 16:31:17 10° SSE
SL-24 R/B 3.8 16:23:02 10° S 16:27:18 60° WSW 16:31:06 10° NNW
Cosmos 1954 Rocket 4.4 16:26:41 38° W 16:27:22 40° WSW 16:32:25 10° S
Meteor 2-1 Rocket 4.3 16:22:04 10° NNW 16:27:26 50° WSW 16:32:56 10° S
FALCON 9 DEB 3.3 16:29:29 49° NNW 16:29:29 49° NNW 16:32:20 10° NE
NOAA 6 3.9 16:24:47 10° N 16:30:00 78° WNW 16:35:17 10° SSW
MOS 1-B 4.4 16:26:19 10° NNE 16:32:08 84° ESE 16:38:02 10° SSW
Cosmos 540 Rocket 3.9 16:26:56 10° SSW 16:32:09 62° ESE 16:37:17 10° NNE
Cosmos 1939 Rocket 3.8 16:28:45 10° NNE 16:32:35 49° ESE 16:36:32 10° S
USA 229 DEB 3.6 16:30:10 24° SW 16:34:13 61° WNW 16:40:29 10° NNE
USA 229 3.6 16:30:14 24° SW 16:34:19 62° WNW 16:40:34 10° NNE
ATLAS 5 CENTAUR R/B 3.9 16:32:05 10° SSW 16:36:36 22° SSE 16:40:34 10° E
SL-16 R/B 3.0 16:37:46 28° W 16:38:09 28° WNW 16:42:55 10° NNW
Cosmos 1812 Rocket 3.4 16:35:04 10° NNW 16:39:26 68° W 16:43:52 10° S
CZ-4C R/B 3.5 16:36:05 10° SSE 16:39:38 61° E 16:43:03 10° N
SMAP 3.0 16:35:39 10° N 16:40:21 79° WNW 16:45:07 10° SSW
Meteor 1-4 Rocket 3.0 16:37:27 10° N 16:40:57 60° E 16:44:28 10° SSE
Cosmos 1943 3.3 16:35:44 10° SSW 16:41:30 78° ESE 16:47:10 10° NNE
deb Chang Zheng 4 4.1 16:40:16 10° NNW 16:44:12 35° W 16:45:36 28° WSW
Helios 1B 4.5 16:42:32 10° S 16:46:58 76° WSW 16:51:19 10° NNW
Cosmos 1809 Rocket 4.4 16:40:49 10° S 16:47:03 89° W 16:53:11 10° N
H-2A R/B 3.6 16:43:25 10° SSE 16:47:27 39° E 16:51:31 10° NNE
CZ-4B R/B 3.4 16:42:04 10° NNE 16:47:38 78° ESE 16:53:09 10° SSW
COSMO-SKYMED 1 4.0 16:46:19 10° SSE 16:50:31 41° E 16:54:39 10° N
Cosmos 1850 Rocket 4.0 16:48:15 10° NNW 16:53:29 60° WSW 16:58:43 10° SSE
Landsat 5 3.6 16:49:26 10° SSE 16:54:00 84° WSW 16:58:34 10° NNW
NOSS 3-1 (A) 3.6 16:50:38 20° SW 16:54:30 44° WNW 16:59:32 10° N
NOAA 11 4.3 16:50:10 10° N 16:55:30 54° W 17:00:54 10° SSW
Cosmos 921 Rocket 3.5 16:54:36 10° SSW 16:59:08 65° ESE 17:03:39 10° NNE
COSMOS 2455 4.3 16:58:51 17° SW 17:00:17 18° SW 17:04:17 10° S
PAYLOAD B 4.3 16:55:09 10° N 17:00:42 59° WNW 17:06:20 10° SSW
FALCON 9 DEB 4.3 17:00:50 21° WNW 17:01:36 23° NW 17:04:13 10° N
Spot 2 4.2 16:57:11 10° N 17:01:41 79° WNW 17:06:33 10° SSW
H-2A R/B 2.5 16:58:49 10° NNE 17:03:06 89° ESE 17:07:16 10° SSW
NOSS 3-1 (C) 4.4 17:01:40 18° W 17:03:26 21° WNW 17:07:22 10° NNW
Cosmos 1634 Rocket 4.5 16:59:01 10° NW 17:04:52 38° WSW 17:10:49 10° S
Cosmos 1741 Rocket 4.2 17:00:21 10° NW 17:05:30 50° WSW 17:10:45 10° S
Cosmos 1869 3.5 17:02:53 10° N 17:07:01 80° E 17:11:12 10° S
CZ-4C R/B 4.2 17:04:15 10° SSW 17:08:18 18° SSE 17:11:54 10° ESE
Cosmos 839 Rocket 4.1 17:02:29 10° NW 17:08:36 54° SW 17:14:46 10° SSE
Okean O Rocket 1.5 17:05:43 10° N 17:10:06 75° WNW 17:14:35 10° SSW
Cosmos 1814 Rocket 4.2 17:05:22 10° SSW 17:10:45 81° ESE 17:16:08 10° NNE
H-2A R/B 3.0 17:06:05 10° NE 17:11:22 53° ESE 17:16:38 10° S
USA 215 3.5 17:05:40 10° SE 17:12:19 78° NE 17:18:55 10° NW
Cosmos 2227 4.4 17:09:55 10° NW 17:15:22 48° WSW 17:20:56 10° SSE
Cosmos 2227 Rocket 4.1 17:19:24 10° SW 17:20:12 10° SW 17:20:59 10° SSW
Cosmos-2242 3.4 17:16:10 10° NNW 17:20:24 44° WSW 17:24:42 10° S
Cosmos 1570 Rocket 4.1 17:15:57 10° SSW 17:21:25 82° WNW 17:26:48 10° NNE
Meteor 2-21 Rocket 4.4 17:17:27 10° SSW 17:23:40 73° W 17:29:45 10° N
Cosmos 2151 3.8 17:21:42 10° SSW 17:25:29 30° W 17:29:15 10° NNW
Gbstr 26 Del rocket 3.9 17:23:09 13° WSW 17:25:59 29° S 17:29:41 10° SE
CZ-2D R/B 3.3 17:22:28 10° N 17:26:20 66° WNW 17:30:17 10° SSW
DELTA 2 R/B (1) 4.5 17:21:43 10° W 17:26:50 40° NNW 17:32:02 10° NE
Okean-O 4.2 17:23:26 10° NE 17:27:33 37° ESE 17:31:43 10° S
ARGOS 4.1 17:24:53 10° NE 17:30:09 52° ESE 17:35:29 10° S
Cosmos 1655 Rocket 4.1 17:24:50 10° SSW 17:31:14 63° W 17:37:32 10° N
CZ-4 R/B 2.2 17:28:05 10° NNE 17:32:04 57° ESE 17:36:12 10° S
Cosmos 1408 Rocket 4.1 17:28:00 10° S 17:32:24 62° E 17:36:43 10° NNE
CZ-2C R/B 3.4 17:27:39 10° N 17:32:59 49° W 17:38:06 10° SSW
X-37B 0.8 17:33:58 10° WSW 17:37:09 64° NNW 17:40:21 10° ENE
Cosmos 1633 4.4 17:35:50 10° SW 17:37:45 14° W 17:39:39 10° WNW
MOS 1 Rocket 4.3 17:33:07 10° S 17:38:00 33° WSW 17:42:51 10° NW
SKYMED 2 3.6 17:34:17 10° S 17:38:39 61° WSW 17:42:58 10° NNW
IRIDIUM 104 4.4 17:34:33 10° NNW 17:39:44 61° W 17:45:00 10° S
Cosmos 1842 Rocket 3.9 17:39:30 10° N 17:43:50 73° E 17:48:15 10° SSE
USA 267 3.7 17:38:38 10° ENE 17:45:07 63° SSE 17:51:38 10° SW
CZ-2C R/B 3.5 17:40:59 10° SSE 17:46:18 56° E 17:51:28 10° N
GEOS 3 Rocket 4.2 17:41:33 10° ENE 17:46:28 54° SE 17:51:27 10° SSW
